Tracking 25620 objects as of 18-May-2022
HD Live streaming from Space Station
objects crossing your sky now

COSMOS 2251 DEB

Track COSMOS 2251 DEB now!
10-day predictions


NORAD ID: 47060
Int'l Code: 1993-036BXN
Perigee: 539.5 km
Apogee: 689.5 km
Inclination: 73.7 °
Period: 96.8 minutes
Semi major axis: 6985 km
RCS: Unknown
Launch date: June 16, 1993
Source: Commonwealth of Independent States (former USSR) (CIS)
Launch site: PLESETSK MISSILE AND SPACE COMPLEX (PKMTR)

Note: This is SATELLITE DEBRIS
aabbcc
Your satellite tracking list
Your tracking list is empty




NASA's NSSDC Master Catalog

Two Line Element Set (TLE):
1 47060U 93036BXQ 22137.78056573  .00015077  00000-0  15158-2 0  9996
2 47060  73.7095 145.1712 0107331   0.8893 173.8617 14.86988420552740
Source of the keplerian elements: AFSPC